[[{"header":{"parameterUnit":"m.s-1","parameterCategory":1,"la1":30.2991,"la2":30.254,"lo1":-89.0895,"lo2":-89.0444,"dy":0.0017,"dx":0.0017,"nx":28,"ny":28,"refTime":"2024-02-12T03:00:00:Z","depth":0,"parameterNumber":2,"parameterNumberName":"U-component_of_WINDS"},"data":[0,0,0,0,0,0,0,0,0,0,0,0,0,0,0,0,0,0,0,0,0,0,0,0,0,0,0,0,0,0,0,0,0,0,0,0,0,0,0,0,0,0,0,0,0,0,0,0,0,0,0,0,0,0,0,0,0,0,2.4961,2.4962,0,2.5122,2.5124,2.5125,2.512,2.5118,2.5115,2.5113,2.5293,2.53,2.5307,0,0,0,0,0,0,0,0,0,0,0,0,0,2.4665,2.4671,2.4961,2.4963,2.4965,2.5121,2.5124,2.5126,2.512,2.5117,2.5115,2.5112,2.5291,2.5299,2.5308,0,0,0,0,0,0,0,0,0,0,0,0,0,2.4807,2.4673,2.496,2.498,2.4984,2.5121,2.5124,2.5126,2.5121,2.5117,2.5114,2.5111,2.5288,2.5299,2.5309,2.5441,0,0,2.5341,2.5345,0,0,0,0,0,0,0,0,2.4799,2.4818,2.4975,2.4979,2.4983,2.5097,2.5086,2.5233,2.5122,2.5069,2.5113,2.5109,2.5232,2.5247,2.5285,2.545,2.5457,2.5341,2.5348,2.5352,2.5355,0,0,0,0,0,0,0,2.4789,2.4811,2.5025,2.4978,2.4983,2.4987,2.5003,2.5113,2.5168,2.5074,2.5073,2.5092,2.5233,2.5275,2.5289,2.546,2.5341,2.535,2.5357,2.5361,2.5747,2.5751,0,0,0,0,0,0,2.4773,2.4803,2.502,2.503,2.488,2.4995,2.5013,2.5064,2.5167,2.5179,2.5095,2.5091,2.5259,2.5277,2.5295,2.546,2.5352,2.5362,2.5368,2.5743,2.5748,2.5752,0,0,0,0,0,0,2.4767,2.4792,2.5013,2.4916,2.4945,2.5004,2.5061,2.5069,2.511,2.5182,2.5194,2.5126,2.5257,2.5281,2.5405,2.5466,2.5367,2.5376,2.5738,2.5745,2.575,2.5789,0,0,0,0,0,0,2.4758,2.479,2.4837,2.4917,2.495,2.5115,2.5064,2.5075,2.5126,2.5123,2.5215,2.5227,2.5256,2.539,2.5415,2.5479,2.5384,2.5733,2.5741,2.5748,2.5782,2.5795,2.5807,0,0,0,0,0,2.4747,2.4844,2.4839,2.4865,2.5009,2.5118,2.5138,2.5165,2.5131,2.5182,2.5229,2.5224,2.5455,2.5402,2.5431,2.5499,2.573,2.5739,2.5748,2.5777,2.5793,2.5806,0,0,0,0,0,0,2.4774,2.4854,2.485,2.4974,2.5039,2.5117,2.5181,2.518,2.526,2.5254,2.5289,2.531,2.5435,2.548,2.5419,2.5635,2.5589,2.5604,2.5601,2.5617,2.5629,2.5617,2.5393,0,0,0,0,0,2.4793,2.487,2.4939,2.5042,2.5074,2.5122,2.5171,2.5186,2.5257,2.5286,2.5342,2.5415,2.5505,2.5563,2.5649,2.5788,2.5812,2.585,2.5862,2.5871,2.5885,2.5967,2.5986,2.5782,2.5782,2.5782,0,0,2.4836,2.4889,2.4936,2.5048,2.51,2.5185,2.5145,2.5236,2.5301,2.5301,2.5421,2.5465,2.555,2.5683,2.5745,2.5724,2.5946,2.5883,2.589,2.5899,2.5978,2.5997,2.6014,2.5788,2.5787,2.5786,0,0,2.4956,2.5002,2.5094,2.5147,2.5224,2.5256,2.5278,2.5357,2.5385,2.5505,2.5508,2.5589,2.5741,2.5802,2.5853,2.5999,2.6,2.6027,2.6091,2.617,2.6186,2.6201,2.6257,2.6276,2.604,2.604,2.604,0,2.5001,2.5122,2.5144,2.5234,2.5286,2.5285,2.5383,2.5434,2.5539,2.5577,2.5551,2.5743,2.58,2.5949,2.5985,2.6025,2.6057,2.6017,2.6181,2.6196,2.621,2.6264,2.6285,2.6043,2.6043,2.6042,2.6042,0,2.5175,2.526,2.5327,2.5422,2.5481,2.5575,2.5616,2.5674,2.5685,2.5721,2.5847,2.5915,2.6016,2.6053,2.6066,2.6206,2.6191,2.6172,2.6127,2.6232,2.6284,2.6304,2.6047,2.6046,2.6045,2.6045,0,0,2.5317,2.5422,2.5447,2.5492,2.5578,2.5648,2.5744,2.5838,2.589,2.5963,2.6048,2.6178,2.6162,2.622,2.6241,2.6309,2.6426,2.6284,2.6287,2.6311,2.659,2.6604,2.6627,2.6426,2.643,2.6433,2.6584,0,2.5449,2.5613,2.5636,2.5785,2.5867,2.5869,2.5954,2.6019,2.6057,2.6137,2.618,2.6272,2.6242,2.6278,2.6346,2.6397,2.6483,2.6386,2.6512,2.6516,2.6492,2.6654,2.6669,2.6808,2.6604,2.6607,2.6609,0,2.5624,2.5697,2.5852,2.5929,2.5965,2.604,2.613,2.6204,2.6282,2.6305,2.637,2.6382,2.6489,2.6437,2.6588,2.6521,2.6575,2.6608,2.6614,2.6629,2.657,2.6676,2.6852,2.6874,2.6641,2.6638,2.6636,0,2.5715,2.5853,2.5964,2.6002,2.6095,2.6148,2.6191,2.6263,2.632,2.6401,2.6439,2.6533,2.6586,2.6661,2.6701,2.6659,2.6851,2.6802,2.6878,2.6877,2.692,2.6917,2.711,2.6949,2.6949,2.6949,2.6948,0,2.5861,2.5957,2.6006,2.6075,2.6185,2.6213,2.6323,2.6364,2.643,2.6511,2.652,2.6598,2.6644,2.6731,2.6764,2.6886,2.6909,2.6935,2.6943,2.6936,2.6933,2.6973,2.6965,2.6954,2.6953,2.6952,2.6951,0,2.5982,2.6018,2.614,2.6217,2.6239,2.6317,2.6386,2.6457,2.6493,2.6597,2.6623,2.6684,2.6786,2.6832,2.696,2.6982,2.7123,2.7123,2.7095,2.7099,2.7173,2.7167,2.7401,2.7435,2.7249,2.725,2.7252,0,2.6074,2.6147,2.6231,2.6284,2.6326,2.6411,2.6468,2.6501,2.6561,2.6655,2.6716,2.6817,2.69,2.7065,2.7124,2.7223,2.7228,2.7303,2.7243,2.7234,2.7233,2.7229,2.7239,2.7314,2.7316,2.7318,2.7319,0,2.6234,2.6249,2.6327,2.6413,2.6479,2.655,2.6619,2.6664,2.6708,2.6777,2.6878,2.6942,2.7072,2.7175,2.7277,2.7328,2.7334,2.7337,2.736,2.7355,2.7337,2.7351,2.7128,2.7332,2.7331,2.733,2.7329,2.7329,2.6346,2.6412,2.6481,2.657,2.6625,2.669,2.676,2.6805,2.6888,2.6993,2.7009,2.7119,2.72,2.7337,2.7392,2.7483,2.7466,2.7499,2.7508,2.7516,2.7522,2.732,2.7502,2.7501,2.7501,2.7501,2.7501,0,2.6509,2.6553,2.6634,2.6729,2.68,2.6793,2.6871,2.6933,2.7028,2.7099,2.718,2.73,2.74,2.7467,2.757,2.7631,2.7637,2.7657,2.7655,2.7667,2.753,2.75,2.7651,2.7651,2.7651,2.7651,2.7651,2.7651,2.6602,2.6714,2.6738,2.688,2.6926,2.703,2.7075,2.7138,2.7195,2.7327,2.7409,2.7449,2.7522,2.763,2.7724,2.7742,2.7782,2.7804,2.7822,2.7692,2.7677,2.7662,2.7634,2.7811,2.7811,2.7952,2.7953,2.7954]},{"header":{"parameterUnit":"m.s-1","parameterCategory":1,"la1":30.2991,"la2":30.254,"lo1":-89.0895,"lo2":-89.0444,"dy":0.0017,"dx":0.0017,"nx":28,"ny":28,"refTime":"2024-02-12T03:00:00:Z","depth":0,"parameterNumber":3,"parameterNumberName":"V-component_of_WINDS"},"data":[0,0,0,0,0,0,0,0,0,0,0,0,0,0,0,0,0,0,0,0,0,0,0,0,0,0,0,0,0,0,0,0,0,0,0,0,0,0,0,0,0,0,0,0,0,0,0,0,0,0,0,0,0,0,0,0,0,0,3.7291,3.7294,0,3.7564,3.7567,3.757,3.7645,3.7643,3.7642,3.764,3.7912,3.792,3.7929,0,0,0,0,0,0,0,0,0,0,0,0,0,3.6825,3.6833,3.7291,3.7295,3.7298,3.7564,3.7567,3.7571,3.7645,3.7643,3.7641,3.7639,3.7909,3.7919,3.793,0,0,0,0,0,0,0,0,0,0,0,0,0,3.7055,3.6835,3.7291,3.7367,3.7377,3.7563,3.7568,3.7572,3.7645,3.7643,3.7641,3.7638,3.7906,3.7918,3.7931,3.8058,0,0,3.7971,3.7977,0,0,0,0,0,0,0,0,3.7042,3.7072,3.7352,3.7362,3.7373,3.7568,3.7503,3.7735,3.7646,3.7543,3.764,3.7637,3.7799,3.782,3.7877,3.8071,3.8083,3.7972,3.798,3.7986,3.7989,0,0,0,0,0,0,0,3.7026,3.7061,3.7399,3.7356,3.7369,3.7384,3.7415,3.7547,3.768,3.7552,3.7558,3.759,3.7804,3.7864,3.7883,3.8087,3.7972,3.7983,3.7991,3.7996,3.8396,3.8398,0,0,0,0,0,0,3.6998,3.7047,3.739,3.7407,3.7199,3.7395,3.7429,3.7508,3.7679,3.7703,3.7591,3.7592,3.7843,3.7868,3.7893,3.8053,3.7985,3.7998,3.8005,3.8393,3.8396,3.8399,0,0,0,0,0,0,3.6988,3.7028,3.7379,3.7229,3.7275,3.7405,3.7494,3.7514,3.7575,3.7709,3.7733,3.7629,3.7842,3.7875,3.8017,3.8063,3.8004,3.8015,3.839,3.8394,3.8398,3.8372,0,0,0,0,0,0,3.6974,3.7024,3.7076,3.723,3.7283,3.7501,3.7497,3.7521,3.7598,3.7601,3.7751,3.7773,3.7843,3.7997,3.803,3.808,3.8026,3.8386,3.8392,3.8396,3.8369,3.8375,3.838,0,0,0,0,0,3.6957,3.7057,3.7078,3.7119,3.7351,3.7504,3.7534,3.7614,3.7601,3.7653,3.7739,3.7768,3.8052,3.8011,3.8048,3.8103,3.8384,3.839,3.8396,3.8367,3.8374,3.8379,0,0,0,0,0,0,3.6904,3.7079,3.7104,3.7258,3.7365,3.7516,3.7585,3.7619,3.7731,3.7729,3.7822,3.7855,3.7989,3.806,3.8011,3.8233,3.8218,3.8232,3.8183,3.819,3.8195,3.8176,3.8036,0,0,0,0,0,3.691,3.7022,3.7168,3.7288,3.7342,3.7453,3.7523,3.7575,3.769,3.7735,3.7832,3.7939,3.8052,3.8125,3.8237,3.8379,3.8411,3.8435,3.844,3.8443,3.8454,3.8532,3.8544,3.842,3.842,3.842,0,0,3.6924,3.7033,3.7098,3.7281,3.7371,3.7481,3.7491,3.7609,3.7691,3.7752,3.7893,3.7966,3.8092,3.8234,3.8301,3.8297,3.8495,3.8451,3.8453,3.8463,3.854,3.8551,3.8561,3.8424,3.8423,3.8423,0,0,3.7006,3.7101,3.7212,3.7301,3.7437,3.7511,3.7536,3.7682,3.7734,3.7876,3.7924,3.802,3.8214,3.8301,3.8371,3.8482,3.8511,3.8515,3.8542,3.8616,3.8626,3.8635,3.8673,3.8686,3.8525,3.8525,3.8525,0,3.7006,3.7178,3.7263,3.7379,3.7456,3.7517,3.7628,3.7709,3.7874,3.7924,3.7917,3.816,3.8249,3.8411,3.8438,3.8493,3.8523,3.8499,3.8618,3.8628,3.8638,3.8675,3.8689,3.8525,3.8525,3.8525,3.8525,0,3.717,3.7288,3.736,3.752,3.7605,3.7717,3.7815,3.7891,3.7934,3.8007,3.8148,3.8257,3.8391,3.8432,3.8476,3.8599,3.8592,3.8601,3.8587,3.8648,3.8684,3.8699,3.8524,3.8524,3.8524,3.8525,0,0,3.7229,3.7433,3.7458,3.753,3.7683,3.7774,3.7886,3.8019,3.8081,3.8191,3.8286,3.8446,3.8455,3.8533,3.8586,3.8651,3.8729,3.8651,3.8655,3.8661,3.8869,3.8863,3.8878,3.8749,3.8752,3.8755,3.8859,0,3.733,3.7538,3.7616,3.7785,3.7893,3.7951,3.8048,3.815,3.822,3.8319,3.8394,3.8507,3.8509,3.8557,3.8624,3.8706,3.8772,3.8699,3.8836,3.884,3.8804,3.8898,3.8892,3.8985,3.8873,3.8876,3.8878,0,3.7477,3.7591,3.777,3.7908,3.7956,3.8043,3.817,3.8265,3.838,3.8425,3.8511,3.8559,3.8675,3.8653,3.8812,3.876,3.882,3.8868,3.8873,3.889,3.8863,3.8916,3.9016,3.903,3.8901,3.8899,3.8898,0,3.7501,3.7698,3.7831,3.7891,3.8055,3.8114,3.8184,3.8298,3.8371,3.848,3.8528,3.8647,3.8713,3.8802,3.888,3.8857,3.903,3.9015,3.9069,3.9067,3.9104,3.9101,3.9216,3.9142,3.9142,3.9142,3.9141,0,3.7607,3.7714,3.7844,3.7926,3.8046,3.8132,3.8248,3.8321,3.8421,3.8515,3.857,3.8656,3.8753,3.8851,3.8911,3.9032,3.9061,3.9099,3.9114,3.9094,3.9089,3.9135,3.9131,3.9146,3.9145,3.9144,3.9143,0,3.7655,3.7747,3.7895,3.8038,3.8075,3.8158,3.8278,3.8357,3.8428,3.8546,3.8578,3.8688,3.8805,3.8891,3.9042,3.9082,3.9211,3.9226,3.9173,3.9181,3.923,3.9223,3.9378,3.9402,3.9312,3.9312,3.9313,0,3.7716,3.7801,3.7952,3.802,3.8091,3.82,3.8276,3.8362,3.8438,3.8573,3.8635,3.8756,3.8859,3.9042,3.9133,3.9247,3.9265,3.9311,3.9283,3.926,3.9265,3.9259,3.9267,3.9315,3.9316,3.9316,3.9317,0,3.7815,3.7856,3.7965,3.8089,3.8178,3.8279,3.838,3.8432,3.8535,3.8616,3.8739,3.8817,3.8971,3.909,3.9213,3.9281,3.9315,3.9325,3.9343,3.9325,3.929,3.9308,3.9184,3.9321,3.9321,3.932,3.932,3.932,3.7872,3.7949,3.8067,3.8185,3.8271,3.8364,3.8445,3.8525,3.863,3.8764,3.8807,3.8932,3.904,3.9209,3.9278,3.9375,3.9373,3.94,3.9407,3.9412,3.9411,3.9274,3.9397,3.9397,3.9397,3.9397,3.9397,0,3.7973,3.8052,3.816,3.8301,3.8392,3.8418,3.8531,3.8605,3.8716,3.8815,3.8915,3.9052,3.9166,3.9265,3.9383,3.9441,3.9459,3.9468,3.9465,3.948,3.9406,3.9378,3.9452,3.9452,3.9452,3.9451,3.9451,3.9451,3.8037,3.8167,3.8221,3.8393,3.847,3.8596,3.8657,3.8741,3.8822,3.8974,3.907,3.9135,3.9233,3.9358,3.9462,3.9488,3.9528,3.9533,3.9562,3.9492,3.9485,3.9479,3.9453,3.9542,3.9542,3.9629,3.9629,3.963]}]]